This demonstration page uses our WeatherBlox Daily Observations layout. Learn more.

Left ArrowRight Arrow

53.62937, 11.41316

Hourly Observations for December 12, 2019

Temp ( °F °C ) Dew Point ( °F °C ) Humidity (%) Winds ( mph kmh ) Pressure ( in mb ) Visibility ( mi km ) Precip ( " mm )
6:50 am 06:50 Mostly Cloudy with Mist and Fog 39 4 39 4 100 100 SW 7 11 29.53 1000 3 4 N/A
7:20 am 07:20 Mostly Cloudy with Mist and Fog 39 4 37 3 93 93 SW 6 9 29.53 1000 3 4 N/A
7:50 am 07:50 Mostly Cloudy with Mist and Fog 39 4 37 3 93 93 SSW 5 7 29.53 1000 3 4 N/A
8:20 am 08:20 Mostly Cloudy with Mist and Fog 39 4 37 3 93 93 SSW 5 7 29.53 1000 3 5 N/A
8:50 am 08:50 Mostly Cloudy with Mist and Fog 39 4 37 3 93 93 SSW 6 9 29.53 1000 3 5 N/A
9:20 am 09:20 Mostly Cloudy with Mist and Fog 39 4 37 3 93 93 SSW 7 11 29.53 1000 3 5 N/A
9:50 am 09:50 Mostly Cloudy with Mist and Fog 39 4 37 3 93 93 SSW 8 13 29.53 1000 3 5 N/A
10:20 am 10:20 Mostly Cloudy with Mist and Fog 39 4 37 3 93 93 SSW 8 13 29.53 1000 3 5 N/A
10:50 am 10:50 Mostly Cloudy with Mist and Fog 39 4 37 3 93 93 SSW 8 13 29.53 1000 3 5 N/A
11:20 am 11:20 Mostly Cloudy 41 5 39 4 93 93 SSW 8 13 29.53 1000 4 6 N/A
11:50 am 11:50 Mostly Cloudy 41 5 39 4 93 93 SSW 8 13 29.50 999 4 7 N/A
12:20 pm 12:20 Mostly Cloudy 41 5 39 4 93 93 SSW 8 13 29.50 999 6 9 N/A
12:50 pm 12:50 Mostly Cloudy 41 5 39 4 93 93 SW 8 13 29.50 999 30 48 N/A
1:20 pm 13:20 Mostly Cloudy 41 5 39 4 93 93 SSW 9 15 29.50 999 30 48 N/A
1:50 pm 13:50 Mostly Cloudy 41 5 39 4 93 93 SSW 8 13 29.47 998 30 48 N/A
2:20 pm 14:20 Mostly Cloudy with Light Rain 41 5 39 4 93 93 SSW 8 13 29.47 998 5 8 N/A
2:50 pm 14:50 Mostly Cloudy 41 5 37 3 87 87 SSW 8 13 29.47 998 30 48 N/A
3:20 pm 15:20 Mostly Cloudy 41 5 37 3 87 87 SSW 8 13 29.47 998 30 48 N/A
3:50 pm 15:50 Mostly Cloudy 41 5 37 3 87 87 SSW 8 13 29.47 998 30 48 N/A
4:20 pm 16:20 Mostly Cloudy 41 5 37 3 87 87 SSW 6 9 29.47 998 30 48 N/A
4:50 pm 16:50 Mostly Cloudy 39 4 37 3 93 93 SSW 5 7 29.44 997 30 48 N/A
5:20 pm 17:20 Mostly Cloudy 39 4 37 3 93 93 SSW 6 9 29.44 997 30 48 N/A
5:50 pm 17:50 Mostly Cloudy 39 4 37 3 93 93 S 6 9 29.44 997 30 48 N/A
6:20 pm 18:20 Mostly Cloudy 39 4 37 3 93 93 S 7 11 29.44 997 30 48 N/A
6:50 pm 18:50 Mostly Cloudy 39 4 37 3 93 93 S 7 11 29.44 997 30 48 N/A
7:20 pm 19:20 Mostly Cloudy 39 4 37 3 93 93 S 8 13 29.44 997 30 48 N/A
7:50 pm 19:50 Mostly Cloudy 37 3 36 2 93 93 S 7 11 29.41 996 30 48 N/A

Powered by AerisWeather